Content
SEND FEEDBACK

Daily
Averages
Monthly
Summary
United States of America

MIAMI, NEW MEXICO


Home > North America > United States > New Mexico
Elevation: 6164 feet     Latitude: 36 21N     Longitude: 104 46W

WEATHER
 
SELECT A DAY
Number of Records: 169,131;   Date Range: 10/2/07 - 8/22/14
 
SHARE

PRINT THIS DATA

[ ← Previous Day ]
WEATHER ALMANAC - JANUARY 4, 2013
[ Next Day → ]
[ °C ]   °F
Weather ElementAverageHighLow
Temperature-10.6 °F24.6 °F (3:35 pm)-36.4 °F (5:35 am)
Dewpoint-18.9 °F10.6 °F (3:15 pm)-43.4 °F (5:35 am)
Humidity69.3 %86 % (2:35 pm)32 % (3:55 pm)
Barometer30.13 in30.23 in (1:35 am)30.03 in (2:15 pm)
Wind Speed1.3 mph12.7 mph (4:55 pm)
Weather ElementAverage
Visibility8.9 mi
Wind DirectionNNE (28.8 °)

Weather ElementTotal
Precipitation---
Heating Degree Days70.9 (Base 65)
Averaged from 51 records on January 4, 2013
WEATHER CONDITIONS BREAKOUT
WIND DIRECTION BREAKOUT
WEATHER BY HOUR - JANUARY 4, 2013
[ °C ]   °F
Local TimeTemperatureDewpointHumidityBarometerVisibilityWind DirectionWind SpeedGust SpeedPrecipitationEventsConditions
12:35 AM-29.9 °F-36.2 °F72 %30.22 in7.0 miCalmClear
12:55 AM-27.0 °F-32.4 °F75 %30.22 in7.0 miCalmClear
1:35 AM-27.9 °F-34.2 °F72 %30.23 in10.0 miCalmClear
1:55 AM-31.7 °F-38.9 °F68 %30.23 in10.0 miCalmClear
2:15 AM-31.4 °F-37.7 °F71 %30.23 in10.0 miCalmClear
4:55 AM-34.1 °F-41.1 °F68 %30.21 in7.0 miCalmClear
5:15 AM-36.0 °F-42.9 °F69 %30.21 in10.0 miCalmClear
5:35 AM-36.4 °F-43.4 °F68 %30.22 in10.0 miCalmClear
6:15 AM-35.0 °F-42.5 °F66 %30.21 in10.0 miCalmScattered Clouds
6:35 AM-33.9 °F-40.9 °F68 %30.21 in10.0 miCalmScattered Clouds
6:55 AM-33.7 °F-40.9 °F68 %30.21 in10.0 miCalmMostly Cloudy
7:15 AM-32.3 °F-39.1 °F69 %30.21 in10.0 miCalmOvercast
7:55 AM-33.2 °F-40.2 °F69 %30.22 in10.0 miCalmMostly Cloudy
8:35 AM-31.5 °F-38.7 °F68 %30.22 in10.0 miCalmClear
8:55 AM-27.0 °F-32.8 °F74 %30.22 in10.0 miCalmClear
9:35 AM-20.2 °F-25.4 °F77 %30.22 in3.0 miCalmHaze
9:55 AM-20.4 °F-26.9 °F72 %30.21 in3.0 miCalmHaze
10:15 AM-19.8 °F-26.0 °F73 %30.20 in5.0 miNNE (20°)3.5 mphHaze
10:35 AM-18.0 °F-23.3 °F77 %30.19 in10.0 miCalmClear
10:55 AM-15.5 °F-20.7 °F77 %30.17 in10.0 miCalmClear
11:15 AM-15.2 °F-20.4 °F77 %30.16 in10.0 miCalmClear
11:55 AM-11.6 °F-16.4 °F79 %30.13 in0.5 miCalmFogLight Freezing Fog
12:15 PM-9.4 °F-14.1 °F80 %30.11 in1.2 miCalmMist
12:35 PM-6.2 °F-10.5 °F82 %30.09 in0.8 miCalmSnowLight Snow
1:15 PM-3.1 °F-6.9 °F84 %30.06 in10.0 miCalmClear
1:35 PM-1.5 °F-5.3 °F84 %30.05 in10.0 miCalmClear
1:55 PM0.5 °F-3.1 °F85 %30.05 in10.0 miCalmClear
2:15 PM2.8 °F-0.9 °F84 %30.03 in10.0 miCalmClear
2:35 PM1.8 °F-1.7 °F86 %30.03 in10.0 miCalmClear
2:55 PM4.3 °F0.5 °F84 %30.03 in10.0 miCalmClear
3:15 PM17.6 °F10.6 °F74 %30.03 in10.0 miSSW (200°)3.5 mphClear
3:35 PM24.6 °F-0.6 °F34 %30.04 in10.0 miCalmClear
3:55 PM24.6 °F-1.3 °F32 %30.05 in10.0 miCalmClear
4:55 PM18.9 °F-5.8 °F34 %30.05 in10.0 miWSW (250°)12.7 mphClear
5:35 PM16.3 °F-4.2 °F40 %30.06 in10.0 miWSW (240°)11.5 mphClear
6:15 PM16.3 °F-6.3 °F36 %30.07 in10.0 miSW (230°)8.1 mphClear
6:35 PM16.0 °F-6.2 °F37 %30.07 in10.0 miSW (230°)9.2 mphClear
6:55 PM14.5 °F-5.4 °F41 %30.07 in10.0 miSW (230°)8.1 mphClear
7:35 PM7.5 °F-6.3 °F53 %30.08 in10.0 miCalmClear
7:55 PM2.1 °F-8.5 °F61 %30.08 in10.0 miCalmClear
8:15 PM1.2 °F-8.1 °F65 %30.08 in10.0 miNNE (20°)4.6 mphClear
8:55 PM-3.5 °F-10.5 °F72 %30.08 in10.0 miNE (50°)4.6 mphClear
9:15 PM-5.6 °F-11.6 °F75 %30.08 in10.0 miCalmClear
9:35 PM-7.2 °F-13.0 °F76 %30.09 in10.0 miCalmClear
9:55 PM-9.6 °F-14.6 °F78 %30.09 in10.0 miCalmClear
10:15 PM-10.7 °F-15.5 °F79 %30.10 in10.0 miCalmClear
10:35 PM-8.0 °F-12.1 °F82 %30.10 in10.0 miCalmClear
10:55 PM-9.8 °F-15.3 °F76 %30.11 in10.0 miCalmClear
11:15 PM-9.8 °F-13.9 °F82 %30.11 in10.0 miCalmClear
11:35 PM-10.5 °F-15.5 °F78 %30.11 in10.0 miCalmClear
11:55 PM-13.0 °F-17.1 °F82 %30.11 in10.0 miCalmClear
Hourly data recorded from KAXX, located miles away from Miami, New Mexico







STORIES FROM OUR PARTNERS